Regional Weather Roundup
Issued by NWS Jackson, KY

Home | Current Version | Previous Version | Graphics & Text | Print | Product List | Glossary On
Versions: 1 2 3 4 5 6 7 8 9 10 11 12 13 14 15 16 17 18 19 20 21 22 23 24 25 26 27 28
000
ASUS43 KJKL 260710
RWRJKL

EAST KENTUCKY HOURLY WEATHER ROUNDUP
NATIONAL WEATHER SERVICE JACKSON KY
200 AM EST SUN FEB 26 2017

NOTE: "FAIR" INDICATES FEW OR NO CLOUDS BELOW 12,000 FEET WITH
NO SIGNIFICANT WEATHER AND/OR OBSTRUCTIONS TO VISIBILITY.

* THESE REPORTS ARE NOT UNDER NWS QUALITY CONTROL AND MAY NOT
  REPORT WEATHER SUCH AS PRECIPITATION AND FOG.

KYZ079-080-083-085-087-088-110-112-115-119-120-260800
...EASTERN KENTUCKY...

CITY           SKY/WX    TMP DP  RH WIND       PRES   REMARKS
JACKSON        CLEAR     29  18  63 SW5       30.09R WCI  24
LONDON         CLEAR     26  20  77 CALM      30.12R
SOMERSET*      CLEAR     27  25  93 CALM      30.15S
MONTICELLO*    CLEAR     19  16  88 CALM      30.16R
WILLIAMSBURG*  SUNNY     27  25  93 CALM      30.13R
MIDDLESBORO*   CLEAR     28  23  82 CALM      30.13R
HARLAN APT*    SUNNY     30  19  64 CALM      30.09S
PIKE CO APT*   CLOUDY    30  18  62 SW3       30.07S
BIG SANDY APT* CLOUDY    33  19  58 W6        30.09S WCI  27
MOREHEAD APT*  MOSUNNY   30  18  59 SW5       30.11S WCI  25
ASHLAND*       CLEAR     30  18  59 W5        30.09S WCI  25
$$

KYZ035-036-041-042-044-050-067-078-099-260800
...CENTRAL KENTUCKY...

CITY           SKY/WX    TMP DP  RH WIND       PRES   REMARKS
FLEMING/MASON* CLEAR     25  19  77 SW7       30.11R WCI  17
DANVILLE*      CLEAR     27  19  74 CALM      30.13R
LEXINGTON      CLEAR     26  17  68 SW5       30.11R WCI  20
FRANKFORT      CLEAR     27  16  63 SW5       30.11R WCI  22
LOUISVILLE     PTCLDY    29  16  58 W8        30.14R WCI  21
LEBANON*         N/A     28  19  69 S5        30.14R WCI  23
GLASGOW*       CLEAR     26  23  88 CALM      30.15S
BOWLING GREEN  CLEAR     30  19  63 CALM      30.17R
$$

KYZ091>093-OHZ055-061-077-WVZ005-015-034-035-042-260800
...SOUTHERN OHIO/WEST VIRGINIA...

CITY           SKY/WX    TMP DP  RH WIND       PRES   REMARKS
COVINGTON      CLEAR     25  17  72 W7        30.09R WCI  17
COLUMBUS       FLURRIES  31  18  58 W9        30.04S WCI  23
DAYTON         MOCLDY    26  17  68 W12       30.06R WCI  16
WILMINGTON     CLEAR     26  17  68 W8        30.05R WCI  18
HUNTINGTON     CLOUDY    32  18  56 W8        30.09S WCI  25
CHARLESTON     CLOUDY    33  16  49 W7        30.07S WCI  27
PINEVILLE*       N/A     31  15  50 MISG      30.09S
BECKLEY        CLOUDY    26  14  60 NW12G26   29.98S WCI  16
BLUEFIELD      CLOUDY    24  14  65 NW14G24   29.96S WCI  12
LOGAN CO APT*  CLOUDY    30  19  64 VRB6      30.05S WCI  24
$$

VAZ002-007-008-TNZ017-027-036-066-071-260800
...SOUTHWEST VIRGINIA/EAST TENNESSEE...

CITY           SKY/WX    TMP DP  RH WIND       PRES   REMARKS
WISE*          CLEAR     28  18  64 NW3       30.03S
JONESVILLE*      N/A     28  23  80 CALM      30.12R
ABINGDON*      CLEAR     32  18  57 N7        30.04R WCI  25
BRISTOL        CLEAR     30  18  60 W7        30.07F WCI  23
MORRISTOWN*    MOSUNNY   32  19  59 CALM      30.10R
SEVIERVILLE*   SUNNY     28  19  69 CALM      30.12R
KNOXVILLE      CLEAR     35  22  58 N5        30.12R WCI  31
LAFOLLETTE*    SUNNY     28  23  80 CALM      30.15R
OAK RIDGE      CLEAR     31  22  69 CALM      30.15R
CROSSVILLE     CLEAR     27  18  69 NW3       30.10R
NASHVILLE      CLEAR     33  19  56 CALM      30.17R
$$

...KEY TO REMARKS...
VSB - VISIBILITY IN MILES
WCI - WIND CHILL INDEX
HX  - HEAT INDEX

$$




USA.gov is the U.S. government's official web portal to all federal, state and local government web resources and services.